Simultaneous Nadir Overpasses (SNOs) Predictions

Prediction of SNOs between AQUA and NOAA-19 Satellite Orbit:

Table of predicted SNOs for the next 14.0 days since TLE Epoch: 2/15/2025
Index Date (AQUA) Time (AQUA) Lat,Lon (AQUA) SZA (AQUA ) Date (NOAA-19) Time (NOAA-19) Lat,Lon (NOAA-19) SZA (NOAA-19 ) Distance(km) Time Diff (sec)
1 02/15/2025 05:02:32 -75.66, -72.83 91.83 02/15/2025 05:02:32 -75.68, -72.72 91.81 3.44 0
2 02/17/2025 07:10:53 75.64, 75.22 87.42 02/17/2025 07:09:55 75.60, 75.23 87.39 3.87 58
3 02/17/2025 08:00:12 -75.67,-117.20 92.57 02/17/2025 08:00:56 -75.68,-117.27 92.55 2.30 44
4 02/19/2025 10:08:32 75.65, 30.80 86.69 02/19/2025 10:08:18 75.65, 30.85 86.69 1.49 14
5 02/19/2025 10:58:03 -76.26,-163.44 92.71 02/19/2025 10:59:07 -76.25,-159.80 92.73 96.40 64
6 02/21/2025 12:16:49 -75.61, 178.90 94.11 02/21/2025 12:15:48 -75.61, 178.87 94.12 1.04 61
7 02/21/2025 13:06:10 75.69, -13.65 85.95 02/21/2025 13:06:41 75.70, -13.55 85.97 2.98 31
8 02/23/2025 15:14:26 -75.65, 134.43 94.85 02/23/2025 15:14:10 -75.67, 134.51 94.84 2.73 16
9 02/23/2025 16:03:50 75.88, -58.59 85.37 02/23/2025 16:05:00 75.91, -57.37 85.41 33.35 70
10 02/25/2025 17:22:42 75.64, -77.55 84.37 02/25/2025 17:21:33 75.63, -77.41 84.36 4.02 69
11 02/25/2025 18:12:01 -75.66, 90.07 95.63 02/25/2025 18:12:33 -75.67, 89.97 95.62 2.96 32
12 02/27/2025 20:20:16 75.66,-121.95 83.59 02/27/2025 20:19:56 75.65,-121.90 83.58 2.02 20



Historial Predications of SNOs between AQUA and NOAA-19
